Simultaneous Nadir Overpasses (SNOs) Predictions

Prediction of SNOs between LANDSAT-8 and NPP Satellite Orbit:

Table of predicted SNOs for the next 14.0 days since TLE Epoch: 2/2/2018
Index Date (LANDSAT-8) Time (LANDSAT-8) Lat,Lon (LANDSAT-8) SZA (LANDSAT-8 ) Date (NPP) Time (NPP) Lat,Lon (NPP) SZA (NPP ) Distance(km) Time Diff (sec)
1 02/04/2018 22:25:09 -70.66, 20.87 93.32 02/04/2018 22:23:59 -70.74, 19.32 93.16 57.66 70
2 02/04/2018 23:14:45 70.06,-172.35 86.11 02/04/2018 23:14:33 70.09,-172.34 86.14 3.05 12
3 02/05/2018 00:04:15 -69.95, -4.88 94.01 02/05/2018 00:05:14 -69.96, -4.83 94.01 2.37 59
4 02/07/2018 14:41:46 -70.13, 135.98 94.64 02/07/2018 14:40:40 -70.15, 136.04 94.61 2.78 66
5 02/07/2018 15:31:13 70.03, -56.52 85.25 02/07/2018 15:31:24 70.02, -56.46 85.25 2.19 11
6 02/07/2018 16:20:49 -69.59, 110.50 95.18 02/07/2018 16:21:59 -69.58, 111.52 95.24 39.50 70
7 02/10/2018 06:58:14 -70.15,-108.11 95.48 02/10/2018 06:57:33 -70.14,-108.16 95.48 2.62 41
8 02/10/2018 07:47:42 69.99, 59.30 84.36 02/10/2018 07:48:17 70.01, 59.33 84.38 3.20 35
9 02/12/2018 22:25:04 70.71,-159.04 84.18 02/12/2018 22:23:55 70.79,-160.74 84.35 62.87 69
10 02/12/2018 23:14:43 -70.11, 7.71 96.40 02/12/2018 23:14:26 -70.13, 7.63 96.38 3.41 17
11 02/13/2018 00:04:10 70.00, 175.20 83.49 02/13/2018 00:05:10 70.01, 175.12 83.49 3.08 60
12 02/15/2018 14:41:42 70.17, -43.96 82.76 02/15/2018 14:40:36 70.15, -43.95 82.76 2.08 66
13 02/15/2018 15:31:12 -70.07, 123.53 97.35 02/15/2018 15:31:18 -70.06, 123.50 97.35 0.99 6
14 02/15/2018 16:20:45 69.62, -69.45 82.22 02/15/2018 16:21:56 69.63, -68.54 82.18 35.09 71




NCC Satellite Simultaneous Nadir Overpasses (SNOs) Prediction Service
